• En España
  • Lista de países
  • Para 7 días
  • Temperatura del agua
  • Mapa Satelital
  • El tiempo en el mapa
  • Informadores
  • user-avatar
    Iniciar sesión

    Tiempo cada hora Baranovichi

    Hoy, 23 Mayo, Miércoles

    Tiempo Temperatura Precipitaciones Viento Presión Humedad
    00:00 +11°C° 0 mm 3 mps 749 mmHg 86%
    01:00 +11°C° 0 mm 3 mps 748 mmHg 90%
    02:00 +12°C° 0 mm 2 mps 748 mmHg 94%
    03:00 +12°C° 0,1 mm 2 mps 748 mmHg 95%
    04:00 +12°C° 0,1 mm 2 mps 748 mmHg 96%
    05:00 +12°C° 0,1 mm 2 mps 748 mmHg 97%
    06:00 +14°C° 0 mm 2 mps 749 mmHg 92%
    07:00 +16°C° 0 mm 2 mps 749 mmHg 86%
    08:00 +18°C° 0 mm 2 mps 749 mmHg 81%
    09:00 +19°C° 0,2 mm 2 mps 749 mmHg 74%
    10:00 +21°C° 0,2 mm 3 mps 749 mmHg 67%
    11:00 +22°C° 0,2 mm 3 mps 749 mmHg 60%
    12:00 +22°C° 0,2 mm 3 mps 749 mmHg 58%
    13:00 +24°C° 0,2 mm 3 mps 749 mmHg 55%
    14:00 +23°C° 0,2 mm 4 mps 749 mmHg 52%
    15:00 +23°C° 0,1 mm 4 mps 749 mmHg 54%
    16:00 +22°C° 0,1 mm 3 mps 749 mmHg 55%
    17:00 +22°C° 0,1 mm 3 mps 749 mmHg 56%
    18:00 +20°C° 0 mm 3 mps 749 mmHg 62%
    19:00 +18°C° 0 mm 2 mps 749 mmHg 69%
    20:00 +16°C° 0 mm 2 mps 749 mmHg 75%
    21:00 +15°C° 0 mm 2 mps 750 mmHg 80%
    22:00 +14°C° 0 mm 2 mps 750 mmHg 84%
    23:00 +13°C° 0 mm 2 mps 750 mmHg 89%

    Mañana, 24 Mayo, Jueves

    Tiempo Temperatura Precipitaciones Viento Presión Humedad
    00:00 +13°C° 0 mm 2 mps 750 mmHg 91%
    01:00 +12°C° 0 mm 2 mps 750 mmHg 93%
    02:00 +12°C° 0 mm 2 mps 750 mmHg 95%
    03:00 +12°C° 0 mm 2 mps 750 mmHg 95%
    04:00 +10°C° 0 mm 2 mps 750 mmHg 95%
    05:00 +10°C° 0 mm 2 mps 750 mmHg 95%
    06:00 +12°C° 0 mm 3 mps 750 mmHg 88%
    07:00 +14°C° 0 mm 3 mps 751 mmHg 81%
    08:00 +17°C° 0 mm 3 mps 751 mmHg 74%
    09:00 +18°C° 0 mm 4 mps 751 mmHg 69%
    10:00 +20°C° 0 mm 4 mps 751 mmHg 64%
    11:00 +21°C° 0 mm 4 mps 751 mmHg 58%
    12:00 +22°C° 0 mm 5 mps 750 mmHg 57%
    13:00 +22°C° 0 mm 5 mps 750 mmHg 55%
    14:00 +23°C° 0 mm 5 mps 750 mmHg 54%
    15:00 +22°C° 0,2 mm 5 mps 750 mmHg 58%
    16:00 +22°C° 0,2 mm 5 mps 749 mmHg 61%
    17:00 +21°C° 0,2 mm 5 mps 749 mmHg 65%
    18:00 +20°C° 0,1 mm 4 mps 749 mmHg 71%
    19:00 +18°C° 0,1 mm 3 mps 749 mmHg 77%
    20:00 +17°C° 0,1 mm 3 mps 749 mmHg 83%
    21:00 +16°C° 0 mm 3 mps 749 mmHg 85%
    22:00 +14°C° 0 mm 3 mps 749 mmHg 88%
    23:00 +13°C° 0 mm 3 mps 749 mmHg 90%

    Pasado mañana, 25 Mayo, Viernes

    Tiempo Temperatura Precipitaciones Viento Presión Humedad
    00:00 +12°C° 0 mm 3 mps 749 mmHg 92%
    01:00 +13°C° 0 mm 2 mps 749 mmHg 93%
    02:00 +12°C° 0 mm 2 mps 749 mmHg 95%
    03:00 +12°C° 0 mm 2 mps 749 mmHg 95%
    04:00 +11°C° 0 mm 3 mps 749 mmHg 96%
    05:00 +11°C° 0 mm 3 mps 750 mmHg 97%
    06:00 +13°C° 0 mm 3 mps 750 mmHg 92%
    07:00 +16°C° 0 mm 3 mps 750 mmHg 87%
    08:00 +18°C° 0 mm 4 mps 750 mmHg 83%
    09:00 +19°C° 0,1 mm 4 mps 751 mmHg 77%
    10:00 +21°C° 0,1 mm 4 mps 751 mmHg 71%
    11:00 +23°C° 0,1 mm 5 mps 751 mmHg 64%
    12:00 +23°C° 0,4 mm 5 mps 751 mmHg 64%
    13:00 +23°C° 0,4 mm 5 mps 751 mmHg 64%
    14:00 +24°C° 0,4 mm 6 mps 751 mmHg 63%
    15:00 +23°C° 0,4 mm 5 mps 751 mmHg 66%
    16:00 +23°C° 0,4 mm 5 mps 751 mmHg 68%
    17:00 +23°C° 0,4 mm 4 mps 751 mmHg 71%
    18:00 +21°C° 0,3 mm 4 mps 752 mmHg 76%
    19:00 +20°C° 0,3 mm 3 mps 752 mmHg 80%
    20:00 +19°C° 0,3 mm 3 mps 752 mmHg 85%
    21:00 +18°C° 0 mm 4 mps 753 mmHg 86%
    22:00 +17°C° 0 mm 4 mps 753 mmHg 87%
    23:00 +16°C° 0 mm 5 mps 754 mmHg 88%

    26 Mayo, Sábado

    Tiempo Temperatura Precipitaciones Viento Presión Humedad
    00:00 +15°C° 0 mm 4 mps 754 mmHg 86%
    01:00 +14°C° 0 mm 4 mps 754 mmHg 85%
    02:00 +13°C° 0 mm 4 mps 755 mmHg 84%
    03:00 +13°C° 0 mm 4 mps 755 mmHg 84%
    04:00 +12°C° 0 mm 4 mps 755 mmHg 84%
    05:00 +11°C° 0 mm 4 mps 756 mmHg 84%
    06:00 +13°C° 0 mm 4 mps 756 mmHg 79%
    07:00 +14°C° 0 mm 5 mps 756 mmHg 74%
    08:00 +15°C° 0 mm 5 mps 756 mmHg 69%
    09:00 +16°C° 0 mm 5 mps 757 mmHg 64%
    10:00 +17°C° 0 mm 6 mps 757 mmHg 59%
    11:00 +20°C° 0 mm 6 mps 757 mmHg 54%
    12:00 +20°C° 0 mm 6 mps 757 mmHg 53%
    13:00 +21°C° 0 mm 6 mps 756 mmHg 51%
    14:00 +21°C° 0 mm 6 mps 756 mmHg 49%
    15:00 +21°C° 0 mm 6 mps 756 mmHg 51%
    16:00 +21°C° 0 mm 5 mps 756 mmHg 53%
    17:00 +21°C° 0 mm 5 mps 756 mmHg 55%
    18:00 +19°C° 0 mm 5 mps 756 mmHg 59%
    19:00 +18°C° 0 mm 4 mps 756 mmHg 64%
    20:00 +15°C° 0 mm 4 mps 756 mmHg 68%
    21:00 +14°C° 0 mm 4 mps 756 mmHg 68%
    22:00 +13°C° 0 mm 4 mps 756 mmHg 68%
    23:00 +13°C° 0 mm 4 mps 757 mmHg 68%

    27 Mayo, Domingo

    Tiempo Temperatura Precipitaciones Viento Presión Humedad
    00:00 +12°C° 0 mm 4 mps 757 mmHg 71%
    01:00 +11°C° 0 mm 3 mps 757 mmHg 74%
    02:00 +10°C° 0 mm 3 mps 757 mmHg 77%
    03:00 +10°C° 0 mm 3 mps 757 mmHg 79%
    04:00 +10°C° 0 mm 3 mps 757 mmHg 81%
    05:00 +9°C° 0 mm 3 mps 757 mmHg 84%
    06:00 +11°C° 0 mm 4 mps 757 mmHg 78%
    07:00 +13°C° 0 mm 4 mps 757 mmHg 73%
    08:00 +15°C° 0 mm 4 mps 757 mmHg 67%
    09:00 +17°C° 0 mm 4 mps 756 mmHg 63%
    10:00 +17°C° 0 mm 5 mps 756 mmHg 58%
    11:00 +19°C° 0 mm 5 mps 756 mmHg 54%
    12:00 +20°C° 0 mm 4 mps 756 mmHg 53%
    13:00 +21°C° 0 mm 4 mps 756 mmHg 51%
    14:00 +21°C° 0 mm 4 mps 755 mmHg 50%
    15:00 +21°C° 0 mm 4 mps 755 mmHg 51%
    16:00 +21°C° 0 mm 3 mps 755 mmHg 52%
    17:00 +21°C° 0 mm 3 mps 755 mmHg 53%
    18:00 +20°C° 0 mm 3 mps 754 mmHg 59%
    19:00 +18°C° 0 mm 3 mps 754 mmHg 66%
    20:00 +16°C° 0 mm 2 mps 754 mmHg 73%
    21:00 +15°C° 0 mm 2 mps 754 mmHg 74%
    22:00 +14°C° 0 mm 2 mps 755 mmHg 76%
    23:00 +13°C° 0 mm 2 mps 755 mmHg 77%

    28 Mayo, Lunes

    Tiempo Temperatura Precipitaciones Viento Presión Humedad
    00:00 +12°C° 0 mm 2 mps 755 mmHg 79%
    01:00 +12°C° 0 mm 2 mps 755 mmHg 80%
    02:00 +11°C° 0 mm 1 mps 755 mmHg 82%
    03:00 +11°C° 0 mm 1 mps 755 mmHg 82%
    04:00 +11°C° 0 mm 1 mps 755 mmHg 83%
    05:00 +11°C° 0 mm 1 mps 755 mmHg 83%
    06:00 +13°C° 0 mm 1 mps 755 mmHg 76%
    07:00 +15°C° 0 mm 1 mps 755 mmHg 70%
    08:00 +18°C° 0 mm 1 mps 755 mmHg 64%
    09:00 +19°C° 0 mm 2 mps 755 mmHg 58%
    10:00 +20°C° 0 mm 2 mps 755 mmHg 53%
    11:00 +23°C° 0 mm 2 mps 755 mmHg 48%
    12:00 +23°C° 0 mm 2 mps 755 mmHg 47%
    13:00 +24°C° 0 mm 2 mps 755 mmHg 45%
    14:00 +25°C° 0 mm 2 mps 754 mmHg 43%
    15:00 +25°C° 0 mm 2 mps 754 mmHg 45%
    16:00 +25°C° 0 mm 2 mps 754 mmHg 47%
    17:00 +25°C° 0 mm 2 mps 753 mmHg 49%
    18:00 +23°C° 0 mm 2 mps 753 mmHg 56%
    19:00 +21°C° 0 mm 1 mps 753 mmHg 63%
    20:00 +19°C° 0 mm 1 mps 753 mmHg 70%
    21:00 +18°C° 0 mm 1 mps 753 mmHg 72%
    22:00 +16°C° 0 mm 1 mps 753 mmHg 74%
    23:00 +15°C° 0 mm 1 mps 753 mmHg 76%
    Mostrar más